Location: Barrio de Canyet
(41.4665°N, 2.2381°E)
Time: 02:00:05
(UTC+00:00)

Cosmos 1697 Rocket - Pass Details

Date: 09 April 2020
Orbit: 831 x 845 km, 71.0° (Epoch: 05 June)

Event Time Altitude Azimuth Distance (km) Brightness Sun altitude
Rises 21:06:47 0° 340° (NNW) 3,410 6.8 -27.7°
Reaches altitude 10° 21:09:20 10° 346° (NNW) 2,472 5.8 -28.0°
Enters shadow 21:14:07 46° 38° (NE) 1,122 3.3 -28.7°
